Terminal Aerodrome Forecast
Issued by NWS State College, PA

Home | Current Version | Previous Version | Text Only | Print | Product List | Glossary On
Versions: 1 2 3 4 5 6 7 8 9 10 11 12 13 14 15 16 17 18 19 20 21 22 23 24 25 26 27 28 29 30 31 32 33 34 35 36 37 38 39 40 41 42 43 44 45 46 47 48 49 50
000
FTUS41 KCTP 281154
TAFMDT
TAF
KMDT 281154Z 2812/2912 VRB03KT 1 1/2SM BR BKN100
      TEMPO 2812/2813 3SM HZ SCT100
     FM281300 VRB03KT 6SM HZ SCT100
     FM281600 29005KT P6SM SCT050
     FM282100 32005KT P6SM SCT050=

USA.gov is the U.S. government's official web portal to all federal, state and local government web resources and services.